Content
SEND FEEDBACK

Daily
Averages
Monthly
Summary
Iran

MASHHAD, IRAN


Home > Middle East > Iran
Elevation: 3214 feet     Latitude: 36 16N     Longitude: 059 38E

WEATHER
 
SELECT A DAY
Number of Records: 200,140;   Date Range: 2/9/98 - 7/28/14
 
SHARE

PRINT THIS DATA

[ ← Previous Day ]
WEATHER ALMANAC - JANUARY 18, 2013
[ Next Day → ]
[ °C ]   °F
Weather ElementAverageHighLow
Temperature40.6 °F51.8 °F (12:55 pm)26.6 °F (12:55 am)
Dewpoint18.1 °F25 °F (9:30 pm)12 °F (9:30 am)
Humidity42.6 %86 % (12:55 am)14 % (3:30 pm)
Barometer30.03 in30.18 in (9:30 pm)29.98 in (3:30 am)
Wind Speed7.9 mph16.1 mph (2:30 am)
Weather ElementAverage
Visibility5.8 mi
Wind DirectionSW (220.5 °)

Weather ElementTotal
Precipitation---
Heating Degree Days25.8 (Base 65)
Averaged from 62 records on January 18, 2013
WEATHER CONDITIONS BREAKOUT
WIND DIRECTION BREAKOUT
WEATHER BY HOUR - JANUARY 18, 2013
[ °C ]   °F
Local TimeTemperatureDewpointHumidityBarometerVisibilityWind DirectionWind SpeedGust SpeedPrecipitationEventsConditions
12:30 AM30.2 °F21.2 °F69 %30.01 in2.5 miSouth (190°)6.9 mphHaze
12:55 AM26.6 °F23.0 °F86 %30.01 in2.5 miSSW (210°)6.9 mphClear
1:20 AM26.6 °F23.0 °F86 %30.01 in2.5 miWSW (250°)6.9 mphClear
1:30 AM26.6 °F23.0 °F86 %30.01 in2.5 miWSW (250°)6.9 mphClear
1:55 AM33.8 °F15.8 °F48 %30.01 inWest (280°)11.5 mphClear
2:30 AM35.6 °F15.8 °F44 %30.01 inWNW (300°)16.1 mphClear
3:30 AM37.4 °F14.0 °F38 %29.98 inNW (310°)13.8 mphClear
3:30 AM36.0 °F14.0 °F27 %30.04 in9.0 miNW (310°)13.4 mph
3:55 AM37.4 °F14.0 °F38 %29.98 inNW (310°)11.5 mphClear
4:30 AM37.4 °F12.2 °F36 %29.98 inNW (310°)9.2 mphClear
5:00 AM37.4 °F14.0 °F38 %29.98 inWNW (300°)9.2 mphClear
5:30 AM35.6 °F14.0 °F41 %29.98 inNW (320°)9.2 mphClear
6:00 AM33.8 °F17.6 °F52 %29.98 inSSW (200°)4.6 mphClear
6:30 AM32.0 °F17.6 °F55 %30.01 inSSW (200°)4.6 mphClear
7:00 AM33.8 °F15.8 °F48 %30.01 inSouth (190°)6.9 mphClear
7:30 AM33.8 °F17.6 °F52 %30.01 inCalmClear
8:00 AM33.8 °F17.6 °F52 %30.01 inSSE (160°)4.6 mphClear
8:30 AM37.4 °F17.6 °F45 %30.01 inSW (220°)4.6 mphClear
8:55 AM39.2 °F14.0 °F36 %30.04 inSW (230°)9.2 mphClear
9:30 AM40.0 °F12.0 °F18 %30.13 in9.0 miSouth (180°)6.7 mphClear
9:30 AM39.2 °F12.2 °F33 %30.04 inSouth (180°)6.9 mphClear
9:55 AM42.8 °F14.0 °F31 %30.04 inSSE (160°)6.9 mphClear
10:20 AM41.0 °F12.2 °F31 %30.04 inCalmClear
10:55 AM44.6 °F15.8 °F31 %30.04 inSSE (160°)9.2 mphClear
11:20 AM44.6 °F15.8 °F31 %30.01 inSSE (150°)11.5 mphClear
11:30 AM44.6 °F15.8 °F31 %30.01 inSSE (150°)11.5 mphClear
12:00 PM46.4 °F19.4 °F34 %30.01 inCalmClear
12:20 PM50.0 °F17.6 °F28 %30.01 inWNW (300°)11.5 mphClear
12:30 PM50.0 °F17.6 °F28 %30.01 inWNW (300°)11.5 mphClear
12:55 PM51.8 °F17.6 °F26 %30.01 inWNW (300°)11.5 mphClear
1:30 PM51.8 °F19.4 °F28 %30.01 inNW (310°)9.2 mphClear
1:55 PM50.0 °F19.4 °F30 %30.01 inWest (280°)13.8 mphClear
2:20 PM51.8 °F15.8 °F24 %30.01 inWest (280°)11.5 mphClear
2:30 PM51.8 °F15.8 °F24 %30.01 inWest (280°)11.5 mphClear
2:55 PM50.0 °F15.8 °F26 %30.01 inNW (310°)11.5 mphClear
3:20 PM50.0 °F15.8 °F26 %30.01 inNNW (330°)13.8 mphClear
3:30 PM50.0 °F16.0 °F14 %30.04 in9.0 miNNW (330°)13.4 mphClear
3:30 PM50.0 °F15.8 °F26 %30.01 inNNW (330°)13.8 mphClear
3:55 PM50.0 °F17.6 °F28 %30.01 inNW (310°)9.2 mphClear
4:20 PM48.2 °F14.0 °F25 %30.04 inWNW (300°)6.9 mphClear
4:30 PM48.2 °F14.0 °F25 %30.04 inWNW (300°)6.9 mphClear
4:55 PM46.4 °F19.4 °F34 %30.04 inWest (270°)6.9 mphClear
5:20 PM46.4 °F14.0 °F27 %30.04 inWest (270°)9.2 mphClear
5:30 PM46.4 °F14.0 °F27 %30.04 inWest (270°)9.2 mphClear
6:00 PM44.6 °F14.0 °F29 %30.04 inWest (280°)6.9 mphClear
6:20 PM44.6 °F15.8 °F31 %30.04 inNW (310°)9.2 mphClear
6:30 PM44.6 °F15.8 °F31 %30.04 inNW (310°)9.2 mphClear
7:00 PM41.0 °F19.4 °F42 %30.04 inSSW (210°)4.6 mphClear
7:20 PM39.2 °F21.2 °F49 %30.06 inCalmClear
7:30 PM39.2 °F21.2 °F49 %30.06 inCalmClear
8:00 PM37.4 °F24.8 °F60 %30.06 inSSE (160°)4.6 mphClear
8:20 PM37.4 °F24.8 °F60 %30.06 inSouth (190°)4.6 mphClear
8:30 PM37.4 °F24.8 °F60 %30.06 inSouth (190°)4.6 mphClear
8:55 PM37.4 °F24.8 °F60 %30.06 inSSW (210°)6.9 mphClear
9:20 PM35.6 °F24.8 °F65 %30.09 inSouth (170°)9.2 mphClear
9:30 PM35.6 °F24.8 °F65 %30.09 inSouth (170°)9.2 mphClear
9:30 PM36.0 °F25.0 °F52 %30.18 in9.0 miSouth (170°)8.9 mphClear
9:55 PM37.4 °F24.8 °F60 %30.09 inSouth (190°)6.9 mphClear
10:20 PM35.6 °F24.8 °F65 %30.09 inSSE (160°)4.6 mphClear
10:30 PM35.6 °F24.8 °F65 %30.09 inSSE (160°)4.6 mphClear
11:00 PM35.6 °F24.8 °F65 %30.09 inSSW (200°)4.6 mphClear
11:20 PM33.8 °F24.8 °F70 %30.09 inCalmClear
Hourly data recorded from OIMM, located miles away from Mashhad, Iran







STORIES FROM OUR PARTNERS